Date,TemperatureHighF,TemperatureAvgF,TemperatureLowF,DewpointHighF,DewpointAvgF,DewpointLowF,HumidityHigh,HumidityAvg,HumidityLow,PressureMaxIn,PressureMinIn,WindSpeedMaxMPH,WindSpeedAvgMPH,GustSpeedMaxMPH,PrecipitationSumIn
2013-1-1,28,11,-1,25,9,-4,95,89,84,30.35,30.06,21,4,22,0.00
2013-1-2,29,24,16,26,21,13,96,88,84,30.40,30.06,27,15,30,0.00
2013-1-3,26,20,15,17,14,10,89,79,63,30.40,30.13,19,10,22,0.00
2013-1-4,26,18,11,16,11,8,88,76,62,30.24,30.08,9,4,10,0.02
2013-1-5,20,13,8,17,10,4,90,87,80,30.31,30.05,34,10,39,0.00
2013-1-6,24,15,7,21,12,4,100,87,79,30.31,29.91,16,7,19,0.00
2013-1-7,31,26,14,23,20,12,93,78,69,30.00,29.88,22,8,22,0.00
2013-1-8,36,27,13,30,22,11,93,84,71,30.03,29.73,36,12,37,0.03
2013-1-9,34,25,16,26,20,11,89,79,72,30.20,29.92,23,9,28,0.00
2013-1-10,41,33,26,32,28,24,92,82,62,29.92,29.49,26,9,27,0.00
2013-1-11,30,14,3,28,11,0,100,91,87,29.88,29.50,27,16,28,0.00
2013-1-12,4,1,-3,1,-4,-9,87,80,74,30.38,29.88,36,16,38,0.00
2013-1-13,6,-1,-6,1,-5,-10,85,81,75,30.45,30.34,21,6,21,0.00
2013-1-14,10,2,-6,3,-2,-10,87,83,75,30.46,30.26,11,4,13,0.00
2013-1-15,37,21,6,33,16,2,95,83,72,30.26,29.76,30,9,32,0.02
2013-1-16,37,27,16,33,23,13,93,86,78,30.28,29.79,26,10,28,0.12
2013-1-17,29,24,22,26,21,17,94,88,75,30.48,29.99,18,5,21,0.00
2013-1-18,39,33,27,32,28,23,93,81,73,29.99,29.77,15,6,16,0.00
2013-1-19,35,15,-2,32,9,-6,87,79,69,30.47,29.79,46,18,52,0.00
2013-1-20,4,-2,-12,1,-8,-18,92,75,63,30.68,30.45,37,14,37,0.00
2013-1-21,2,-6,-14,-5,-12,-19,79,75,69,30.64,30.50,20,9,20,0.00
2013-1-22,12,5,-2,10,1,-7,92,83,74,30.50,30.28,12,3,14,0.00
2013-1-23,9,1,-4,6,-4,-9,88,79,71,30.72,30.33,23,10,25,0.00
2013-1-24,22,4,-5,19,-1,-11,89,80,75,30.68,30.14,29,14,29,0.00
2013-1-25,22,6,-1,19,0,-7,86,76,59,30.40,30.17,28,11,29,0.00
2013-1-26,26,14,1,20,10,-4,89,84,75,30.27,30.02,17,8,19,0.05
2013-1-27,29,18,9,23,14,6,90,85,70,30.03,29.85,13,4,13,0.00
2013-1-28,32,26,19,28,24,16,95,91,85,29.92,29.81,8,3,10,0.00
2013-1-29,23,17,7,21,15,3,94,91,84,30.18,29.79,29,6,32,0.00
2013-1-30,7,-6,-13,3,-11,-18,84,77,69,30.26,30.09,28,15,30,0.00
2013-1-31,-9,-14,-19,-15,-20,-24,92,75,71,30.60,30.26,27,12,31,0.01
2013-2-1,20,7,-15,18,4,-20,96,85,79,30.48,30.16,19,7,22,0.00
2013-2-2,33,13,3,30,10,0,94,85,76,30.30,30.05,48,13,50,0.00
2013-2-3,21,16,9,17,12,6,90,86,80,30.28,29.97,14,6,16,0.00
2013-2-4,36,22,9,31,19,6,93,88,80,30.12,29.74,19,7,21,0.01
2013-2-5,33,26,20,28,22,16,95,84,75,30.05,29.75,26,9,27,0.00
2013-2-6,37,25,18,31,22,16,94,88,76,30.17,29.83,21,9,21,0.01
2013-2-7,23,18,14,22,17,13,94,93,91,30.31,30.17,16,8,17,0.00
2013-2-8,26,22,18,24,21,17,100,94,93,30.27,30.03,16,4,18,0.07
2013-2-9,27,23,20,26,22,18,100,95,94,30.03,29.92,5,1,5,0.00
2013-2-10,26,21,17,25,19,15,96,93,88,30.06,29.83,35,10,39,0.01
2013-2-11,23,20,17,18,17,15,93,88,81,30.16,29.96,29,11,30,0.00
2013-2-12,35,28,17,29,22,14,88,81,74,30.02,29.87,19,8,21,0.00
2013-2-13,36,31,28,33,29,24,96,90,82,29.87,29.65,25,8,29,0.03
2013-2-14,32,22,16,30,19,13,96,85,75,30.37,29.84,29,12,30,0.01
2013-2-15,21,17,14,15,13,11,91,84,76,30.51,30.23,19,7,19,0.00
2013-2-16,36,26,16,29,23,13,93,86,73,30.23,29.87,11,5,12,0.00
2013-2-17,41,33,25,34,29,24,95,85,70,29.87,29.53,29,9,32,0.01
2013-2-18,29,10,-4,27,7,-9,92,84,76,30.42,29.65,37,21,38,0.00
2013-2-19,2,-6,-15,-6,-12,-20,92,75,65,30.64,30.42,16,8,21,0.00
2013-2-20,12,2,-10,8,-3,-14,87,79,69,30.59,30.31,31,15,35,0.00
2013-2-21,22,15,11,14,11,8,92,84,67,30.35,30.23,20,11,21,0.00
2013-2-22,27,16,9,19,11,6,89,81,71,30.23,29.95,10,5,13,0.00
2013-2-23,35,20,8,28,16,6,91,86,73,29.95,29.83,14,8,14,0.00
2013-2-24,31,25,19,25,21,15,94,86,76,30.17,29.94,23,9,25,0.00
2013-2-25,43,28,15,28,20,12,90,74,48,30.16,29.96,21,7,23,0.12
2013-2-26,41,29,19,29,23,16,91,77,54,30.19,29.96,21,6,23,0.00
2013-2-27,29,26,20,26,23,17,95,89,81,30.39,30.18,20,11,23,0.00
2013-2-28,30,23,20,23,19,16,91,85,72,30.41,30.35,12,5,14,0.00
2013-3-1,29,22,18,24,19,16,92,88,75,30.49,30.34,13,6,14,0.00
2013-3-2,44,31,23,34,27,21,100,85,67,30.34,30.02,15,6,18,0.00
2013-3-3,39,31,26,33,29,24,96,91,79,30.02,29.67,20,11,21,0.14
2013-3-4,33,27,19,32,25,17,97,92,86,30.21,29.67,30,12,33,0.03
2013-3-5,19,15,4,17,12,1,92,88,80,30.55,30.21,24,11,28,0.00
2013-3-6,19,10,1,15,7,-2,100,88,83,30.54,30.25,23,8,25,0.00
2013-3-7,28,22,13,24,19,11,92,89,85,30.28,30.15,23,9,26,0.01
2013-3-8,31,23,15,26,21,13,94,90,77,30.31,30.10,14,4,15,0.04
2013-3-9,31,23,13,27,20,10,95,89,80,30.26,30.00,28,11,29,0.01
2013-3-10,25,15,8,17,11,5,90,83,68,30.43,30.20,24,8,26,0.00
2013-3-11,36,24,12,28,19,9,91,82,64,30.20,29.95,38,16,39,0.26
2013-3-12,24,18,7,22,13,3,92,82,66,30.44,30.05,39,15,39,0.07
2013-3-13,44,24,4,30,16,0,90,75,50,30.44,30.05,20,8,22,0.00
2013-3-14,57,39,25,44,33,22,93,80,58,30.16,30.03,23,7,23,0.00
2013-3-15,25,16,4,22,12,0,92,86,83,30.30,29.99,24,11,24,0.00
2013-3-16,17,7,-2,11,2,-6,88,82,74,30.39,30.29,18,6,18,0.00
2013-3-17,24,16,8,22,13,4,94,87,82,30.32,29.62,35,16,35,0.00
2013-3-18,19,9,4,15,3,-1,87,75,61,30.18,29.68,42,20,48,0.00
2013-3-19,15,8,1,10,3,-3,86,79,67,30.58,30.16,28,10,30,0.00
2013-3-20,23,10,0,12,4,-4,88,76,59,30.58,30.23,21,7,23,0.00
2013-3-21,24,12,2,15,6,-3,84,78,57,30.24,30.08,25,14,27,0.00
2013-3-22,24,15,9,20,12,6,92,86,82,30.24,30.12,18,10,20,0.00
2013-3-23,22,18,15,17,14,12,92,86,74,30.35,30.24,18,8,19,0.21
2013-3-24,25,18,12,20,14,10,92,86,77,30.45,30.30,23,10,23,0.00
2013-3-25,25,14,2,18,10,0,90,84,71,30.54,30.45,14,6,16,0.00
2013-3-26,30,17,5,22,13,2,90,83,66,30.47,30.29,19,8,19,0.00
2013-3-27,36,21,9,29,18,7,93,86,76,30.34,30.26,15,8,15,0.02
2013-3-28,42,28,17,36,25,15,96,89,74,30.30,30.24,14,6,15,0.00
2013-3-29,45,31,20,39,28,18,96,89,72,30.28,30.06,20,5,21,0.00
2013-3-30,51,37,28,37,31,25,97,82,51,30.10,30.03,30,10,34,0.01
2013-3-31,32,26,15,26,19,11,87,76,52,30.36,30.06,22,9,28,0.00
2013-4-1,36,22,12,19,14,9,90,72,41,30.43,30.35,14,4,16,0.00
2013-4-2,40,27,17,24,18,13,92,69,44,30.40,30.27,23,9,23,0.00
2013-4-3,63,38,25,36,28,19,88,69,34,30.27,29.92,33,14,36,0.00
2013-4-4,40,32,24,26,24,21,90,74,52,30.31,30.17,18,10,22,0.00
2013-4-5,46,32,23,29,23,16,92,72,39,30.25,29.77,28,15,30,0.00
2013-4-6,44,34,28,37,30,27,97,86,69,29.94,29.72,26,10,27,0.00
2013-4-7,48,35,30,39,32,28,95,87,68,29.94,29.73,19,8,20,0.07
2013-4-8,31,23,13,30,21,9,97,90,80,30.44,29.78,28,15,30,0.00
2013-4-9,28,18,10,18,12,6,92,77,61,30.58,30.42,25,12,28,0.00
2013-4-10,37,28,21,23,19,17,88,72,48,30.53,30.14,19,8,19,0.00
2013-4-11,38,30,25,27,23,17,92,76,56,30.14,29.91,20,9,21,0.00
2013-4-12,32,27,23,28,24,21,100,89,79,30.06,29.97,16,7,18,0.08
2013-4-13,40,31,26,32,27,24,95,85,63,30.04,29.78,26,11,30,0.01
2013-4-14,28,26,24,27,24,22,96,94,84,29.81,29.66,33,21,36,0.00
2013-4-15,32,29,26,30,27,24,96,92,84,30.16,29.72,30,16,34,1.17
2013-4-16,35,27,21,28,24,19,94,88,71,30.47,30.15,12,5,13,0.00
2013-4-17,34,26,20,26,22,18,93,86,72,30.48,30.31,20,7,20,0.00
2013-4-18,33,26,17,24,19,13,90,77,61,30.32,30.10,25,11,27,0.00
2013-4-19,38,28,18,22,18,12,90,68,47,30.19,30.06,19,8,22,0.00
2013-4-20,32,26,15,28,19,10,91,76,59,30.22,30.08,26,12,27,0.00
2013-4-21,36,32,26,33,28,22,96,85,70,30.31,29.99,31,14,34,0.04
2013-4-22,32,27,20,24,20,14,92,75,59,30.50,30.30,23,12,26,0.00
2013-4-23,42,30,16,28,20,12,87,69,45,30.49,30.08,25,8,28,0.00
2013-4-24,36,31,23,31,24,15,96,78,48,30.17,30.00,38,13,41,0.00
2013-4-25,60,40,20,38,28,16,88,66,38,30.16,29.85,28,8,30,0.00
2013-4-26,72,54,34,38,33,28,89,53,21,30.08,29.93,17,5,18,0.00
2013-4-27,77,61,42,40,35,32,68,41,20,29.99,29.66,24,8,28,0.00
2013-4-28,64,56,39,40,32,20,60,41,26,29.90,29.60,31,13,33,0.00
2013-4-29,67,48,31,51,34,20,90,62,32,29.88,29.42,31,11,33,0.25
2013-4-30,47,41,28,44,32,21,91,69,53,30.21,29.48,41,18,43,0.01
2013-5-1,48,35,22,24,21,14,85,60,27,30.70,30.21,23,9,26,0.00
2013-5-2,53,38,23,27,22,18,85,57,28,30.77,30.54,17,5,19,0.00
2013-5-3,55,40,24,30,23,10,91,57,17,30.54,30.29,17,8,18,0.00
2013-5-4,59,44,24,32,26,19,90,54,24,30.39,30.29,21,7,23,0.00
2013-5-5,65,48,28,36,28,23,88,52,25,30.33,30.14,18,5,21,0.00
2013-5-6,71,56,36,38,31,27,76,43,23,30.16,29.99,15,4,17,0.00
2013-5-7,76,60,42,44,39,31,81,49,25,30.00,29.82,14,6,17,0.00
2013-5-8,69,57,45,46,42,33,81,58,41,30.17,29.87,25,10,29,0.00
2013-5-9,62,49,33,32,27,21,75,46,22,30.27,30.17,20,10,24,0.00
2013-5-10,70,53,36,42,30,21,75,45,26,30.26,30.00,37,14,39,0.00
2013-5-11,54,42,28,28,22,14,88,49,22,30.44,30.26,19,8,24,0.00
2013-5-12,70,51,30,32,25,15,69,39,19,30.29,29.88,19,8,21,0.00
2013-5-13,88,72,54,49,40,29,50,33,20,29.88,29.56,34,12,35,0.00
2013-5-14,73,66,56,57,45,36,89,49,28,29.79,29.41,48,15,52,0.05
2013-5-15,76,64,50,45,38,30,66,42,21,29.88,29.79,30,8,30,0.00
2013-5-16,61,55,52,53,46,35,92,74,40,29.90,29.83,26,10,30,0.36
2013-5-17,76,62,49,60,53,46,92,74,48,29.89,29.72,17,7,22,0.00
2013-5-18,74,63,54,60,57,53,97,84,52,29.81,29.67,24,7,28,1.55
2013-5-19,59,54,51,58,53,50,97,96,94,29.71,29.50,30,17,38,0.99
2013-5-20,57,51,46,56,50,45,97,95,91,29.71,29.53,39,21,45,0.43
2013-5-21,49,45,42,47,44,41,96,94,88,29.98,29.71,35,18,39,0.05
2013-5-22,67,56,44,48,41,29,91,62,25,30.15,29.98,28,12,32,0.00
2013-5-23,67,58,48,49,45,41,84,64,40,30.25,30.11,27,14,31,0.00
2013-5-24,61,55,49,53,46,36,86,73,61,30.14,29.94,33,17,36,0.00
2013-5-25,71,58,48,61,54,46,100,88,67,30.05,29.92,37,11,39,0.73
2013-5-26,70,60,51,62,55,50,96,87,70,29.99,29.80,32,12,35,0.15
2013-5-27,59,55,51,57,53,50,97,94,88,29.93,29.66,22,9,23,0.36
2013-5-28,73,62,52,58,54,51,97,77,51,29.69,29.60,20,6,21,0.01
2013-5-29,74,64,53,62,56,50,91,76,52,29.64,29.48,19,8,22,0.00
2013-5-30,73,62,58,64,59,56,96,89,63,29.51,29.25,26,13,31,1.61
2013-5-31,63,56,48,59,54,46,96,93,87,29.78,29.25,40,17,40,0.14
2013-6-1,63,53,45,48,44,39,95,75,51,30.12,29.78,37,16,37,0.02
2013-6-2,65,54,41,49,43,38,94,68,45,30.14,29.98,16,6,22,0.00
2013-6-3,53,49,46,49,44,39,92,85,68,29.99,29.81,33,17,35,0.22
2013-6-4,56,50,48,51,48,45,97,91,82,30.02,29.84,26,10,31,0.08
2013-6-5,61,54,48,53,50,47,97,86,69,30.14,30.01,18,8,20,0.01
2013-6-6,69,57,43,54,46,42,96,70,42,30.11,30.01,15,5,18,0.01
2013-6-7,74,62,49,57,51,46,91,69,42,30.02,29.69,15,6,17,0.00
2013-6-8,62,59,55,60,56,53,96,91,74,29.82,29.65,18,8,20,0.28
2013-6-9,75,63,53,59,54,49,98,75,41,29.88,29.72,16,4,18,0.01
2013-6-10,79,66,55,62,56,51,95,73,48,29.83,29.70,19,7,21,0.00
2013-6-11,77,67,58,57,53,47,85,61,35,29.90,29.80,18,6,19,0.04
2013-6-12,71,62,58,60,56,53,94,82,62,30.09,29.80,17,7,21,0.15
2013-6-13,74,65,53,58,54,50,92,70,53,30.14,29.85,23,9,27,0.00
2013-6-14,77,67,57,65,57,48,87,71,48,29.89,29.63,32,12,39,0.01
2013-6-15,75,64,52,53,49,43,81,59,35,29.91,29.84,30,9,30,0.00
2013-6-16,77,65,52,55,51,46,81,61,37,29.95,29.87,30,10,33,0.00
2013-6-17,71,60,51,60,54,48,96,82,54,30.08,29.95,25,6,29,0.04
2013-6-18,77,64,47,60,54,46,97,72,46,30.09,29.89,12,4,15,0.01
2013-6-19,84,72,59,66,58,53,84,64,40,29.90,29.69,27,12,32,0.00
2013-6-20,81,71,63,70,64,56,94,78,63,29.78,29.59,34,13,38,0.00
2013-6-21,72,66,62,66,63,60,97,90,75,29.93,29.77,27,8,32,0.02
2013-6-22,82,68,56,66,61,55,97,81,54,29.88,29.64,39,5,44,1.10
2013-6-23,74,64,57,58,56,51,97,76,49,29.75,29.60,27,12,30,0.01
2013-6-24,86,72,55,69,60,51,87,67,38,29.76,29.60,23,8,25,0.00
2013-6-25,85,73,65,75,68,61,96,83,64,29.62,29.51,20,10,22,0.00
2013-6-26,85,71,57,66,60,54,93,70,47,29.84,29.61,22,7,23,0.00
2013-6-27,81,74,58,60,55,50,82,53,35,29.98,29.84,28,12,32,0.00
2013-6-28,80,68,57,61,56,52,88,66,44,30.06,29.98,27,9,28,0.00
2013-6-29,78,68,55,62,57,51,86,70,50,30.06,30.00,20,6,20,0.00
2013-6-30,81,71,60,61,56,50,86,62,36,30.16,30.06,15,6,16,0.00
2013-7-1,81,71,57,58,54,50,80,57,37,30.23,30.13,15,4,18,0.00
2013-7-2,83,73,59,58,54,50,81,53,34,30.14,29.98,16,5,18,0.00
2013-7-3,86,73,58,59,55,52,82,56,32,29.98,29.72,22,9,24,0.00
2013-7-4,84,72,61,68,58,50,87,63,31,29.74,29.61,43,9,43,0.20
2013-7-5,85,72,59,66,62,56,94,71,48,29.76,29.67,24,6,25,0.01
2013-7-6,87,74,64,70,65,61,95,77,52,29.78,29.67,15,6,17,0.00
2013-7-7,81,70,57,62,58,52,91,68,37,29.95,29.78,13,4,13,0.00
2013-7-8,86,73,62,69,62,56,91,71,50,29.94,29.78,39,8,41,0.16
2013-7-9,77,65,57,66,59,52,96,81,59,30.08,29.76,24,9,28,0.10
2013-7-10,81,66,51,60,56,49,96,73,44,30.11,29.94,14,3,14,0.01
2013-7-11,91,76,60,73,65,56,88,70,47,29.95,29.58,25,10,26,0.00
2013-7-12,87,79,73,71,66,59,85,67,41,29.80,29.53,19,6,20,0.00
2013-7-13,90,78,64,68,64,60,93,64,39,29.91,29.77,28,7,30,0.00
2013-7-14,76,67,61,62,60,57,93,78,60,30.16,29.90,27,10,29,0.00
2013-7-15,83,78,64,71,68,59,83,72,62,30.14,29.88,24,12,26,0.00
2013-7-16,90,76,66,71,64,61,86,68,44,30.10,29.88,27,9,27,0.00
2013-7-17,90,76,64,71,65,59,90,71,45,30.11,29.90,19,9,24,0.00
2013-7-18,89,77,67,72,66,56,89,71,45,29.90,29.73,26,10,30,0.00
2013-7-19,85,71,55,60,56,53,94,63,35,29.93,29.81,24,9,30,0.00
2013-7-20,71,63,57,59,56,54,94,79,61,29.97,29.87,18,7,22,0.03
2013-7-21,87,68,54,67,59,52,92,77,45,29.91,29.56,27,10,31,0.41
2013-7-22,75,65,58,61,57,54,94,76,50,29.95,29.71,19,8,20,0.01
2013-7-23,78,64,54,60,56,51,93,74,48,30.05,29.92,13,4,15,0.00
2013-7-24,82,70,57,62,58,53,91,67,40,30.04,29.93,23,6,23,0.00
2013-7-25,74,65,54,61,54,48,93,70,48,30.10,29.91,28,10,32,0.17
2013-7-26,71,59,48,52,47,42,98,69,40,30.28,30.10,18,8,20,0.00
2013-7-27,72,58,42,49,44,39,93,62,35,30.25,30.05,17,5,19,0.00
2013-7-28,75,61,46,51,46,42,88,60,37,30.06,29.92,19,8,21,0.00
2013-7-29,72,63,54,62,54,46,94,75,61,29.98,29.88,20,8,21,0.05
2013-7-30,74,62,50,63,57,49,98,83,56,30.12,29.98,11,4,13,0.02
2013-7-31,78,67,55,58,53,47,99,65,37,30.14,30.00,16,5,22,0.00
2013-8-1,80,66,51,56,52,48,92,63,36,30.05,29.91,15,5,16,0.00
2013-8-2,75,65,54,55,51,47,86,61,39,30.07,29.92,17,4,17,0.00
2013-8-3,78,67,58,57,54,49,84,64,45,30.16,30.07,18,9,22,0.00
2013-8-4,74,65,59,63,58,52,92,79,64,30.15,29.89,25,8,25,0.00
2013-8-5,80,67,55,60,57,53,97,73,42,29.92,29.73,15,5,18,0.00
2013-8-6,78,65,55,62,57,53,93,75,48,29.89,29.68,30,9,33,0.02
2013-8-7,74,63,56,55,53,49,93,73,45,30.02,29.89,23,6,25,0.00
2013-8-8,75,64,55,55,51,45,92,66,37,30.07,30.00,17,6,19,0.02
2013-8-9,74,61,49,54,49,46,93,67,41,30.17,30.07,21,7,23,0.00
2013-8-10,78,63,48,61,53,46,94,72,44,30.19,30.00,13,5,18,0.17
2013-8-11,79,66,55,60,54,50,96,69,39,30.09,30.01,11,4,13,0.01
2013-8-12,82,68,54,55,50,43,86,57,28,30.11,30.05,15,4,15,0.00
2013-8-13,78,65,52,54,51,48,89,62,38,30.19,30.08,16,8,18,0.00
2013-8-14,79,66,56,60,52,46,76,63,43,30.13,29.97,13,7,15,0.00
2013-8-15,79,66,58,62,56,53,93,73,42,30.04,29.98,18,6,20,0.01
2013-8-16,80,69,56,59,56,53,92,66,44,30.04,29.95,21,9,24,0.00
2013-8-17,90,71,56,67,61,54,96,74,42,29.97,29.79,22,10,25,0.00
2013-8-18,88,75,64,70,64,53,95,72,36,29.87,29.78,25,8,28,0.01
2013-8-19,96,78,58,67,58,52,94,58,25,29.85,29.68,19,5,19,0.00
2013-8-20,100,81,66,66,58,50,73,48,20,29.74,29.63,20,7,25,0.00
2013-8-21,84,71,59,60,54,49,86,57,31,30.06,29.74,18,9,23,0.02
2013-8-22,83,71,60,53,49,42,68,46,29,30.16,30.00,17,8,19,0.00
2013-8-23,88,74,61,69,61,50,86,66,47,30.02,29.70,28,12,30,0.00
2013-8-24,92,80,70,71,67,62,92,66,38,29.73,29.64,17,7,18,0.00
2013-8-25,96,81,64,67,62,56,90,55,28,29.86,29.72,17,5,18,0.00
2013-8-26,84,75,71,73,66,59,89,75,54,29.84,29.76,17,7,18,0.02
2013-8-27,94,75,63,72,66,59,90,75,38,29.90,29.78,19,5,24,0.04
2013-8-28,92,85,70,69,65,63,90,52,41,29.90,29.81,15,5,18,0.00
2013-8-29,86,75,65,69,66,63,97,76,52,29.91,29.74,42,8,51,0.96
2013-8-30,89,74,64,70,66,60,97,76,47,29.95,29.73,41,7,43,0.52
2013-8-31,78,70,59,65,58,52,84,65,42,29.90,29.72,28,10,31,0.00
2013-9-1,72,62,53,59,55,50,97,78,57,30.05,29.90,16,6,19,0.00
2013-9-2,82,66,50,59,54,47,93,67,43,30.08,29.91,15,8,17,0.00
2013-9-3,87,72,59,65,59,54,85,66,36,29.95,29.89,12,5,15,0.00
2013-9-4,81,69,56,61,55,47,89,63,43,30.11,29.95,19,10,22,0.00
2013-9-5,89,74,59,68,59,48,71,60,44,30.09,29.88,16,8,20,0.00
2013-9-6,92,78,65,70,66,62,92,69,43,29.90,29.79,15,4,16,0.00
2013-9-7,77,70,63,67,62,59,91,78,61,30.02,29.83,22,9,25,0.10
2013-9-8,76,68,62,68,64,60,96,86,73,29.99,29.71,26,6,31,0.22
2013-9-9,76,68,59,66,63,55,97,85,59,29.79,29.59,19,7,21,1.51
2013-9-10,80,66,54,61,56,52,96,73,38,29.98,29.78,21,7,22,0.00
2013-9-11,77,65,54,58,51,44,88,62,33,30.20,29.98,17,5,19,0.00
2013-9-12,74,60,45,52,48,42,93,66,37,30.33,30.20,12,4,14,0.00
2013-9-13,80,64,50,56,50,47,90,66,39,30.20,29.84,22,10,26,0.00
2013-9-14,64,60,56,62,55,48,97,85,58,30.02,29.74,21,6,24,0.87
2013-9-15,64,54,43,52,46,41,95,76,48,30.30,30.02,22,8,26,0.00
2013-9-16,69,56,44,55,49,42,96,79,53,30.28,29.94,30,13,32,0.00
2013-9-17,76,63,52,64,57,50,94,81,64,29.94,29.64,19,11,24,0.00
2013-9-18,75,65,60,67,62,58,97,90,73,29.70,29.51,21,6,22,0.04
2013-9-19,64,53,48,58,49,44,92,86,76,30.05,29.60,31,13,35,0.00
2013-9-20,63,51,38,46,41,36,95,72,42,30.08,29.98,23,8,25,0.00
2013-9-21,71,54,38,49,43,36,93,71,40,29.99,29.71,24,11,26,0.00
2013-9-22,82,64,48,64,54,45,91,71,51,29.71,29.39,27,11,28,0.01
2013-9-23,73,62,53,61,56,52,96,82,58,29.80,29.39,33,8,33,0.22
2013-9-24,73,58,47,52,48,42,97,71,35,29.94,29.80,11,4,12,0.01
2013-9-25,76,64,53,56,52,45,82,65,44,29.80,29.51,32,13,36,0.00
2013-9-26,67,59,46,58,52,42,93,79,60,29.85,29.44,25,11,26,0.02
2013-9-27,55,49,42,48,45,40,95,86,74,29.89,29.79,17,7,18,0.23
2013-9-28,64,52,43,45,42,38,95,73,41,29.86,29.76,25,7,28,0.01
2013-9-29,72,57,43,52,45,38,86,67,42,29.82,29.52,22,7,24,0.00
2013-9-30,74,59,48,53,46,40,91,64,40,29.63,29.42,41,6,43,0.03
2013-10-1,66,54,43,47,38,33,87,56,31,29.93,29.63,28,10,32,0.00
2013-10-2,66,54,42,44,40,36,80,59,38,30.00,29.91,23,8,27,0.00
2013-10-3,57,50,45,43,39,34,89,65,44,30.19,29.96,22,9,25,0.00
2013-10-4,46,36,32,39,34,31,96,91,73,30.28,30.12,41,19,44,0.71
2013-10-5,42,36,33,37,33,30,95,90,78,30.13,30.01,43,19,44,1.16
2013-10-6,63,44,26,45,35,24,94,74,46,30.11,29.97,18,6,19,0.00
2013-10-7,69,52,39,51,43,36,91,74,44,29.99,29.66,19,6,21,0.00
2013-10-8,69,53,39,47,42,36,95,68,34,29.85,29.56,25,7,25,0.00
2013-10-9,67,53,40,46,38,35,86,60,31,30.04,29.85,17,4,17,0.00
2013-10-10,66,54,39,54,45,34,92,72,50,29.98,29.60,12,5,14,0.01
2013-10-11,63,54,44,58,52,42,98,92,79,29.65,29.27,49,16,52,0.68
2013-10-12,53,45,39,42,34,30,93,68,43,30.25,29.56,41,16,46,0.01
2013-10-13,53,41,29,40,35,26,95,79,55,30.39,30.25,22,5,23,0.06
2013-10-14,44,42,37,42,39,35,95,90,80,30.29,30.03,30,16,37,0.95
2013-10-15,47,40,35,38,36,31,95,85,61,30.24,30.13,28,12,32,0.22
2013-10-16,59,43,31,41,34,27,87,73,35,30.12,29.89,16,5,18,0.00
2013-10-17,46,40,33,38,32,27,93,75,55,30.08,29.94,28,10,28,0.03
2013-10-18,46,38,30,38,33,26,95,82,58,30.07,29.84,22,9,25,0.06
2013-10-19,47,39,33,39,34,28,94,82,68,29.88,29.65,12,5,13,0.04
2013-10-20,45,37,30,42,34,28,95,89,76,30.07,29.61,30,11,33,0.05
2013-10-21,38,32,24,31,27,22,95,85,63,30.07,29.99,8,2,9,0.00
2013-10-22,35,32,30,31,30,28,95,92,82,30.19,30.03,11,3,11,0.09
2013-10-23,39,33,27,31,29,24,96,87,67,30.34,30.10,17,5,18,0.07
2013-10-24,39,30,23,32,26,20,93,84,68,30.44,30.33,17,5,17,0.00
2013-10-25,60,42,26,44,32,23,93,70,41,30.33,29.96,32,12,38,0.00
2013-10-26,45,36,23,30,27,20,91,71,49,30.30,29.93,20,7,25,0.00
2013-10-27,46,36,26,36,29,20,89,74,59,30.40,29.84,27,10,31,0.00
2013-10-28,32,25,20,22,18,16,88,77,62,30.61,30.40,23,9,24,0.00
2013-10-29,33,28,22,28,22,18,85,80,74,30.54,30.17,12,5,14,0.00
2013-10-30,38,33,29,33,30,26,92,88,82,30.17,29.74,12,4,15,0.00
2013-10-31,43,35,26,37,31,25,95,86,73,29.74,29.58,24,8,26,0.00
2013-11-1,42,38,31,37,33,27,91,84,72,30.06,29.63,31,11,33,0.02
2013-11-2,54,39,26,36,29,23,90,70,36,30.13,29.81,16,5,17,0.00
2013-11-3,44,39,32,35,32,26,82,74,68,29.81,29.55,22,8,24,0.00
2013-11-4,39,32,22,28,21,13,83,65,41,30.15,29.72,32,15,33,0.00
2013-11-5,38,26,17,22,18,12,85,72,51,30.31,30.15,13,6,15,0.00
2013-11-6,44,30,19,28,22,16,92,75,36,30.32,30.14,14,5,15,0.00
2013-11-7,45,30,17,29,21,14,90,71,45,30.35,30.06,20,7,22,0.00
2013-11-8,44,38,30,38,32,22,92,79,67,30.06,29.59,34,11,39,0.00
2013-11-9,39,32,21,34,25,18,88,75,61,30.37,29.83,38,15,40,0.00
2013-11-10,40,26,17,30,17,-2,92,70,41,30.50,30.19,27,10,29,0.00
2013-11-11,21,13,3,2,0,-4,83,58,35,30.86,30.49,22,6,22,0.00
2013-11-12,46,26,11,29,18,2,88,72,51,30.85,30.22,19,7,19,0.00
2013-11-13,52,41,29,38,33,26,89,74,55,30.22,29.90,20,7,21,0.00
2013-11-14,48,38,27,36,32,24,93,78,54,29.93,29.79,24,7,29,0.00
2013-11-15,53,35,22,34,28,20,94,77,43,29.81,29.42,14,6,16,0.00
2013-11-16,43,34,23,32,28,20,92,80,61,29.45,29.31,17,3,17,0.02
2013-11-17,34,30,27,33,28,24,95,92,87,30.05,29.44,19,6,20,0.02
2013-11-18,41,29,17,30,24,15,94,82,64,30.19,30.01,18,7,19,0.00
2013-11-19,38,32,29,31,28,25,92,84,75,30.01,29.59,21,7,21,0.00
2013-11-20,33,19,10,29,14,6,92,83,71,30.47,29.69,26,14,27,0.00
2013-11-21,10,5,-2,8,0,-6,92,79,69,30.79,30.46,25,9,27,0.00
2013-11-22,18,7,-5,13,2,-10,84,78,69,31.01,30.62,26,9,27,0.00
2013-11-23,16,3,-10,9,-2,-14,85,79,64,31.05,30.56,18,6,19,0.00
2013-11-24,43,27,11,29,20,8,89,75,54,30.56,29.98,25,8,26,0.00
2013-11-25,33,28,20,27,22,15,92,78,68,30.39,30.05,31,14,31,0.00
2013-11-26,21,14,8,15,8,4,89,78,60,30.62,30.39,26,8,29,0.00
2013-11-27,34,21,8,23,16,4,86,80,61,30.47,30.03,33,14,38,0.00
2013-11-28,24,20,15,20,14,12,87,79,74,30.49,30.31,22,8,26,0.00
2013-11-29,38,24,14,27,19,11,91,83,61,30.37,30.07,17,6,19,0.00
2013-11-30,36,30,21,29,26,18,94,85,74,30.25,30.12,11,4,13,0.00
2013-12-1,40,29,21,33,25,19,92,88,72,30.23,29.74,14,8,17,0.02
2013-12-2,31,26,19,30,24,16,95,92,89,29.87,29.57,13,1,14,0.02
2013-12-3,19,12,8,17,10,5,91,88,86,30.14,29.84,11,0,11,0.07
2013-12-4,8,5,-3,5,2,-7,88,86,82,30.23,30.09,27,11,31,0.20
2013-12-5,-3,-6,-9,-7,-11,-14,82,79,75,30.60,30.22,21,8,23,0.22
2013-12-6,-8,-12,-16,-13,-17,-22,82,79,74,30.85,30.60,9,4,11,0.00
2013-12-7,-9,-17,-23,-16,-22,-28,92,77,71,30.86,30.62,7,3,7,0.00
2013-12-8,-2,-8,-16,-8,-13,-20,83,80,73,30.62,30.24,9,4,10,0.00
2013-12-9,14,-3,-16,10,-8,-20,92,81,73,30.32,29.89,33,7,39,0.00
2013-12-10,17,2,-9,15,-3,-14,92,80,71,30.60,30.10,25,6,31,0.00
2013-12-11,15,-3,-18,10,-7,-23,87,80,75,30.65,30.34,12,4,16,0.00
2013-12-12,27,16,9,21,12,6,92,84,77,30.40,30.18,16,3,18,0.05
2013-12-13,10,-2,-4,7,-6,-9,88,83,81,30.50,30.19,18,6,19,0.00
2013-12-14,9,3,-4,4,-1,-8,94,83,78,30.49,30.26,11,4,12,0.00
2013-12-15,6,3,-1,5,-1,-5,98,84,82,30.28,29.99,14,8,16,0.00
2013-12-16,35,26,5,29,22,2,95,83,74,30.13,29.99,28,9,29,0.06
2013-12-17,31,23,16,26,17,12,84,78,69,30.26,29.81,27,6,32,0.00
2013-12-18,40,27,8,30,22,4,90,79,63,30.13,29.69,30,7,31,0.02
2013-12-19,8,0,-7,4,-4,-10,92,83,79,30.38,30.13,16,5,20,0.00
2013-12-20,2,-4,-12,-2,-8,-16,85,82,78,30.35,29.96,9,2,10,0.23
2013-12-21,-1,-5,-10,-5,-9,-13,95,83,79,30.35,29.99,9,4,9,0.00
2013-12-22,-4,-9,-19,-8,-13,-23,83,80,73,30.73,30.35,8,3,8,0.00
2013-12-23,-2,-15,-24,-6,-19,-28,92,80,77,30.81,30.37,15,4,17,0.00
2013-12-24,30,17,-1,28,14,-6,94,86,82,30.37,30.14,23,7,24,0.11
2013-12-25,31,26,22,30,22,18,95,85,78,30.30,30.08,27,7,29,0.00
2013-12-26,30,26,18,26,22,17,94,88,80,30.16,30.02,16,3,19,0.00
2013-12-27,42,34,21,34,29,18,92,83,72,30.07,29.84,12,2,18,0.21
2013-12-28,35,13,-8,29,8,-12,92,82,76,30.62,29.72,36,11,40,0.01
2013-12-29,6,-3,-11,3,-8,-16,86,77,71,30.64,30.17,12,4,14,0.00
2013-12-30,8,3,-4,5,-1,-8,88,84,78,30.42,30.12,19,5,21,0.00
2013-12-31,0,-6,-11,-3,-11,-16,92,80,74,30.53,30.33,13,5,15,0.00
2014-1-1,-1,-6,-9,-6,-11,-13,92,81,76,30.64,30.48,11,4,13,0.00
2014-1-2,6,-6,-17,3,-9,-21,88,83,79,30.63,30.07,18,5,20,0.00